Le nostre stazioni meteo in Italia

Pubblicità
Il mio iltempo24.it
Kew Gardens, Gran Bretagna (99095): Temperatura & dewpoint: 15.01.2020 23:00:00 - 21.01.2020 23:00:00 (GMT)Kew Gardens, Gran Bretagna (99095): Temperatura -20cm & Temperatura -100cm: 15.01.2020 23:00:00 - 21.01.2020 23:00:00 (GMT)Kew Gardens, Gran Bretagna (99095): velocità del vento & gusts: 15.01.2020 23:00:00 - 21.01.2020 23:00:00 (GMT)Kew Gardens, Gran Bretagna (99095): direzione del vento: 15.01.2020 23:00:00 - 21.01.2020 23:00:00 (GMT)Kew Gardens, Gran Bretagna (99095): precipitazioni: 15.01.2020 23:00:00 - 21.01.2020 23:00:00 (GMT)
Data & Tempo tt [°C] td [°C] tt -20cm [°C] tt -100cm [°C] ff [km/h] ff [kn] fx [km/h] fx [kn] dd rr [mm]
21.01.2020 23:00:00 0,1 -0,1 - - 2 1 - - O 0,0
21.01.2020 22:00:00 -0,9 -1,2 - - 2 1 - - O 0,0
21.01.2020 21:00:00 -0,5 -0,7 - - 4 2 - - OSO 0,0
21.01.2020 20:00:00 -0,4 -0,8 - - 2 1 - - O 0,0
21.01.2020 19:00:00 -0,1 -0,7 - - 4 2 - - OSO 0,0
21.01.2020 18:00:00 0,9 0,2 - - 2 1 - - OSO 0,0
21.01.2020 17:00:00 2,6 1,0 - - 2 1 - - O 0,0
21.01.2020 16:00:00 5,7 2,1 - - 5 3 - - OSO 0,0
21.01.2020 15:00:00 8,3 2,5 - - 5 3 - - O 0,0
21.01.2020 14:00:00 8,1 3,3 - - 8 4 - - ONO 0,0
21.01.2020 13:00:00 7,3 3,5 - - 4 2 - - OSO 0,0
21.01.2020 12:00:00 5,0 3,1 - - 4 2 - - S 0,2
21.01.2020 11:00:00 2,0 1,6 - - 5 3 - - SSO 0,0
21.01.2020 10:00:00 -0,2 -0,4 - - 4 2 - - SO 0,0
21.01.2020 09:00:00 -1,7 -1,9 4,7 8,4 2 1 - - O 0,0
21.01.2020 08:00:00 -2,0 -2,2 - - 2 1 - - SO 0,0
21.01.2020 07:00:00 -2,3 -2,6 - - 4 2 - - SSO 0,0
21.01.2020 06:00:00 -2,8 -3,2 - - 2 1 - - SO 0,0
21.01.2020 05:00:00 -2,8 -3,2 - - 4 2 - - OSO 0,0
21.01.2020 04:00:00 -2,6 -3,0 - - 2 1 - - SSO 0,0
21.01.2020 03:00:00 -2,5 -2,8 - - 0 0 - - N 0,0
21.01.2020 02:00:00 -1,6 -1,8 - - 4 2 - - ONO 0,0
21.01.2020 01:00:00 -1,8 -2,1 - - 4 2 - - SO 0,0
21.01.2020 00:00:00 -2,0 -2,4 - - 2 1 - - SO 0,0
20.01.2020 23:00:00 -2,0 -2,3 - - 4 2 - - SSO 0,0
20.01.2020 22:00:00 -1,4 -1,8 - - 2 1 - - S 0,0
20.01.2020 21:00:00 -0,6 -0,9 - - 4 2 - - ONO 0,0
20.01.2020 20:00:00 -0,5 -1,0 - - 2 1 - - O 0,0
20.01.2020 19:00:00 0,3 -0,3 - - 4 2 - - O 0,0
20.01.2020 18:00:00 1,4 0,5 - - 4 2 - - O 0,0
20.01.2020 17:00:00 2,7 0,6 - - 4 2 - - SSO 0,0
20.01.2020 16:00:00 5,6 1,1 - - 4 2 - - SSO 0,0
20.01.2020 15:00:00 8,1 1,9 - - 4 2 - - SO 0,0
20.01.2020 14:00:00 7,9 2,0 - - 4 2 - - SO 0,0
20.01.2020 13:00:00 5,3 2,5 - - 2 1 - - S 0,0
20.01.2020 12:00:00 5,0 1,6 - - 4 2 - - SSO 0,0
20.01.2020 11:00:00 3,6 1,3 - - 5 3 - - O 0,0
20.01.2020 10:00:00 2,6 1,8 - - 2 1 - - SSO 0,0
20.01.2020 09:00:00 1,1 0,9 5,0 8,7 2 1 - - SSO 0,0
20.01.2020 08:00:00 0,4 0,2 - - 2 1 - - S 0,0
20.01.2020 07:00:00 0,2 0,0 - - 4 2 - - S 0,0
20.01.2020 06:00:00 -0,4 -0,8 - - 2 1 - - O 0,0
20.01.2020 05:00:00 -0,4 -0,9 - - 4 2 - - SSO 0,0
20.01.2020 04:00:00 0,6 0,1 - - 2 1 - - SSO 0,0
20.01.2020 03:00:00 1,3 0,3 - - 4 2 - - NO 0,0
20.01.2020 02:00:00 0,3 0,2 - - 4 2 - - SO 0,0
20.01.2020 01:00:00 0,2 0,0 - - 2 1 - - S 0,0
20.01.2020 00:00:00 -0,1 -0,3 - - 4 2 - - O 0,0
19.01.2020 23:00:00 -0,7 -0,8 - - 4 2 - - OSO 0,0
19.01.2020 22:00:00 -2,1 -2,5 - - 4 2 - - OSO 0,0
19.01.2020 21:00:00 -1,6 -2,1 - - 4 2 - - ONO 0,0
19.01.2020 20:00:00 -0,9 -1,5 - - 2 1 - - S 0,0
19.01.2020 19:00:00 -0,1 -1,5 - - 0 0 - - N 0,0
19.01.2020 18:00:00 3,6 1,3 - - 4 2 - - N 0,0
19.01.2020 17:00:00 4,5 0,8 - - 8 4 - - NO 0,0
19.01.2020 16:00:00 6,8 1,1 - - 4 2 - - NNO 0,0
19.01.2020 15:00:00 7,6 1,0 - - 4 2 - - N 0,0
19.01.2020 14:00:00 7,4 1,0 - - 5 3 - - NNO 0,0
19.01.2020 13:00:00 6,9 0,8 - - 4 2 - - N 0,0
19.01.2020 12:00:00 5,6 0,6 - - 9 5 - - NO 0,2
19.01.2020 11:00:00 3,5 0,5 - - 8 4 - - ONO 0,0
19.01.2020 10:00:00 0,4 0,3 - - 4 2 - - O 0,0
19.01.2020 09:00:00 -2,3 -2,6 5,7 9,0 4 2 - - OSO 0,0
19.01.2020 08:00:00 -2,9 -3,3 - - 4 2 - - O 0,0
19.01.2020 07:00:00 -1,9 -2,3 - - 5 3 - - NO 0,0
19.01.2020 06:00:00 -0,1 -0,3 - - 9 5 - - NO 0,0
19.01.2020 05:00:00 -1,4 -1,6 - - 5 3 - - NO 0,0
19.01.2020 04:00:00 -1,5 -1,7 - - 4 2 - - NO 0,0
19.01.2020 03:00:00 -1,7 -2,0 - - 2 1 - - O 0,0
19.01.2020 02:00:00 -1,6 -1,9 - - 4 2 - - O 0,0
19.01.2020 01:00:00 -1,3 -1,5 - - 4 2 - - O 0,0
19.01.2020 00:00:00 -1,1 -1,4 - - 5 3 - - O 0,0
18.01.2020 23:00:00 -1,1 -1,6 - - 5 3 - - NO 0,0
18.01.2020 22:00:00 -0,4 -0,8 - - 8 4 - - NO 0,0
18.01.2020 21:00:00 -0,6 -1,0 - - 5 3 - - O 0,0
18.01.2020 20:00:00 -0,3 -0,9 - - 5 3 - - NO 0,0
18.01.2020 19:00:00 0,5 -0,5 - - 2 1 - - ONO 0,0
18.01.2020 18:00:00 1,5 -0,2 - - 5 3 - - NO 0,0
18.01.2020 17:00:00 5,3 0,8 - - 5 3 - - NNO 0,0
18.01.2020 16:00:00 6,2 0,7 - - 8 4 - - NO 0,0
18.01.2020 15:00:00 7,5 0,1 - - 13 7 - - NO 0,0
18.01.2020 14:00:00 8,0 0,5 - - 9 5 - - NO 0,0
18.01.2020 13:00:00 7,1 1,8 - - 8 4 - - ONO 0,0
18.01.2020 12:00:00 7,1 2,1 - - 5 3 - - O 0,0
18.01.2020 11:00:00 5,7 4,1 - - 5 3 - - OSO 0,2
18.01.2020 10:00:00 1,3 1,3 - - 4 2 - - OSO 0,0
18.01.2020 09:00:00 -1,4 -1,6 7,0 9,2 5 3 - - OSO 0,0
18.01.2020 08:00:00 -1,4 -1,6 - - 5 3 - - SO 0,0
18.01.2020 07:00:00 -1,3 -1,5 - - 4 2 - - SO 0,0
18.01.2020 06:00:00 -1,3 -1,6 - - 4 2 - - OSO 0,0
18.01.2020 05:00:00 -1,1 -1,5 - - 4 2 - - O 0,0
18.01.2020 04:00:00 -0,3 -0,7 - - 4 2 - - OSO 0,0
18.01.2020 03:00:00 0,9 -0,1 - - 5 3 - - O 0,0
18.01.2020 02:00:00 1,4 0,7 - - 8 4 - - O 0,0
18.01.2020 01:00:00 2,3 1,7 - - 9 5 - - O 0,0
18.01.2020 00:00:00 1,3 0,5 - - 5 3 - - OSO 0,0
17.01.2020 23:00:00 2,3 1,2 - - 5 3 - - OSO 0,0
17.01.2020 22:00:00 2,6 1,0 - - 5 3 - - OSO 0,0
17.01.2020 21:00:00 3,5 1,5 - - 5 3 - - OSO 0,0
17.01.2020 20:00:00 3,6 2,2 - - 5 3 - - SO 0,0
17.01.2020 19:00:00 4,1 1,9 - - 8 4 - - SO 0,0
17.01.2020 18:00:00 5,3 1,8 - - 8 4 - - OSO 0,0
17.01.2020 17:00:00 6,2 2,3 - - 9 5 - - OSO 0,0
17.01.2020 16:00:00 6,9 2,1 - - 16 9 - - O 0,0
17.01.2020 15:00:00 7,6 1,2 - - 18 10 - - O 0,0
17.01.2020 14:00:00 8,4 2,1 - - 21 11 50 27 O 0,0
17.01.2020 13:00:00 8,0 2,4 - - 21 11 54 29 O 0,0
17.01.2020 12:00:00 8,1 3,4 - - 18 10 50 27 OSO 0,0
17.01.2020 11:00:00 8,9 5,1 - - 15 8 - - OSO 0,0
17.01.2020 10:00:00 8,9 6,2 - - 13 7 - - SO 0,0
17.01.2020 09:00:00 7,8 6,8 8,0 9,2 8 4 - - S 0,0
17.01.2020 08:00:00 7,1 6,2 - - 8 4 - - S 0,0
17.01.2020 07:00:00 7,6 6,6 - - 5 3 - - SSO 0,6
17.01.2020 06:00:00 9,5 8,7 - - 8 4 - - SO 0,8
17.01.2020 05:00:00 9,3 8,1 - - 9 5 - - S 0,0
17.01.2020 04:00:00 9,9 8,6 - - 8 4 - - S 0,0
17.01.2020 03:00:00 10,1 9,2 - - 8 4 - - S 0,0
17.01.2020 02:00:00 10,2 9,4 - - 8 4 - - S 0,0
17.01.2020 01:00:00 10,0 9,1 - - 5 3 - - S 0,0
17.01.2020 00:00:00 10,5 9,5 - - 9 5 - - S 0,4
16.01.2020 23:00:00 10,7 9,7 - - 11 6 - - SSO 0,6
16.01.2020 22:00:00 11,0 9,8 - - 13 7 - - S 0,8
16.01.2020 21:00:00 11,0 9,6 - - 18 10 - - SSO 0,4
16.01.2020 20:00:00 10,9 9,5 - - 15 8 - - S 1,6
16.01.2020 19:00:00 12,1 8,4 - - 16 9 - - S 0,2
16.01.2020 18:00:00 11,8 7,8 - - 18 10 - - S 0,0
16.01.2020 17:00:00 11,8 7,3 - - 16 9 - - S 0,0
16.01.2020 16:00:00 11,1 7,4 - - 13 7 - - S 0,2
16.01.2020 15:00:00 11,2 7,0 - - 16 9 - - S 0,0
16.01.2020 14:00:00 10,9 7,2 - - 18 10 - - SSE 0,0
16.01.2020 13:00:00 11,4 7,2 - - 13 7 - - S 0,0
16.01.2020 12:00:00 9,7 6,4 - - 18 10 - - SSE 0,0
16.01.2020 11:00:00 9,3 6,1 - - 13 7 - - SSE 0,0
16.01.2020 10:00:00 9,1 6,4 - - 11 6 - - SSE 0,0
16.01.2020 09:00:00 8,0 6,6 7,7 9,4 9 5 - - SSE 0,2
16.01.2020 08:00:00 5,5 4,9 - - 8 4 - - SE 0,0
16.01.2020 07:00:00 5,5 5,1 - - 8 4 - - SE 0,0
16.01.2020 06:00:00 4,6 4,1 - - 8 4 - - SE 0,0
16.01.2020 05:00:00 4,5 3,8 - - 5 3 - - SE 0,0
16.01.2020 04:00:00 4,9 3,4 - - 5 3 - - SSE 0,0
16.01.2020 03:00:00 6,5 4,8 - - 8 4 - - S 0,0
16.01.2020 02:00:00 6,9 5,4 - - 9 5 - - S 0,0
16.01.2020 01:00:00 6,2 4,4 - - 8 4 - - SSO 0,0
16.01.2020 00:00:00 6,7 4,3 - - 8 4 - - S 0,0
15.01.2020 23:00:00 5,4 3,2 - - 5 3 - - S 0,0

tt = Temperatura
td = dewpoint
tt -20cm = Temperatura -20cm
tt -100cm = Temperatura -100cm
ff = velocità del vento
fx = gusts
dd = direzione del vento
rr = precipitazioni

Stazioni seguenti

WeatherPro
AMSI
MeteoEarth